User: anonymous   Login
Location: Caltech
(34.1382°N, 118.1253°W)
Time: 17:21:26
(UTC-07:00)
Language:

Iridium 14 - Orbit

View from above orbital plane
View from above orbital plane
View from above satellite
View from above satellite

Ground track
Ground track

The orbit data is extracted from the following two-line orbital elements,

1 25777U 99032A   17177.70850141 +.00000079 +00000-0 +21311-4 0  9998
2 25777 086.3970 219.9607 0002263 087.7137 272.4318 14.34221559955960
Epoch (UTC): 26 June 2017 17:00:14
Eccentricity: 0.0002263
inclination: 86.3970°
perigee height: 776 km
apogee height: 779 km
right ascension of ascending node: 219.9607°
argument of perigee: 87.7137°
revolutions per day: 14.34221559
mean anomaly at epoch: 272.4318°
orbit number at epoch: 95596

The dashed part of the orbit path shows where the satellite is in the earth's shadow,  

DLR